WAT251 KATL-KPWM

Flight info

Callsign WAT251
Flight time 2h 5m
Altitude 35000
Route SMKEY2 BOBBD Q71 PSB J49 ALB DCT CAM CDOGG4
Aircraft B739/M-SDE2E3FGHIRWXY/LB1

Departure

Time 2026-05-07 18:49
Airport Hartsfield Jackson Atlanta International Airport (KATL)

Arrival

Time 2026-05-07 20:54
Airport Portland International Jetport (KPWM)
Time Latitude Longitude Altitude Speed Heading
2026-05-07 18:20 33.64216 -84.43528 1013 ft 0 kts 269°
2026-05-07 18:36 33.64216 -84.43527 1010 ft 0 kts 269°
2026-05-07 18:36 33.64217 -84.43518 1010 ft 2 kts 269°
2026-05-07 18:36 33.64217 -84.43501 1010 ft 2 kts 269°
2026-05-07 18:36 33.64217 -84.43482 1010 ft 2 kts 269°
2026-05-07 18:37 33.64216 -84.43465 1010 ft 2 kts 307°
2026-05-07 18:37 33.64204 -84.43457 1010 ft 0 kts 355°
2026-05-07 18:37 33.64198 -84.43457 1010 ft 1 kts
2026-05-07 18:37 33.64196 -84.43457 1010 ft 0 kts
2026-05-07 18:40 33.64199 -84.43457 1010 ft 2 kts
2026-05-07 18:40 33.64235 -84.43457 1010 ft 7 kts 360°
2026-05-07 18:41 33.64299 -84.43459 1010 ft 9 kts 360°
2026-05-07 18:41 33.64364 -84.43459 1010 ft 11 kts
2026-05-07 18:41 33.64445 -84.43440 1010 ft 11 kts 56°
2026-05-07 18:41 33.64462 -84.43345 1008 ft 12 kts 93°
2026-05-07 18:42 33.64460 -84.43209 1005 ft 18 kts 90°
2026-05-07 18:42 33.64460 -84.43050 1004 ft 18 kts 90°
2026-05-07 18:42 33.64460 -84.42895 1002 ft 19 kts 89°
2026-05-07 18:42 33.64464 -84.42725 999 ft 20 kts 85°
2026-05-07 18:43 33.64468 -84.42543 993 ft 23 kts 90°
2026-05-07 18:43 33.64469 -84.42346 985 ft 20 kts 90°
2026-05-07 18:43 33.64504 -84.42188 979 ft 21 kts 61°
2026-05-07 18:43 33.64542 -84.42012 973 ft 23 kts 91°
2026-05-07 18:44 33.64543 -84.41811 969 ft 24 kts 89°
2026-05-07 18:44 33.64544 -84.41614 969 ft 23 kts 90°
2026-05-07 18:44 33.64543 -84.41421 972 ft 21 kts 90°
2026-05-07 18:44 33.64544 -84.41248 973 ft 20 kts 89°
2026-05-07 18:45 33.64545 -84.41086 976 ft 17 kts 90°
2026-05-07 18:45 33.64546 -84.40944 975 ft 17 kts 89°
2026-05-07 18:45 33.64553 -84.40801 975 ft 15 kts 71°
2026-05-07 18:45 33.64570 -84.40686 975 ft 14 kts 90°
2026-05-07 18:46 33.64572 -84.40617 973 ft 0 kts 81°
2026-05-07 18:46 33.64574 -84.40607 973 ft 5 kts 71°
2026-05-07 18:46 33.64597 -84.40574 974 ft 5 kts 28°
2026-05-07 18:47 33.64645 -84.40567 975 ft 9 kts 360°
2026-05-07 18:47 33.64678 -84.40597 977 ft 5 kts 281°
2026-05-07 18:47 33.64679 -84.40610 977 ft 0 kts 270°
2026-05-07 18:47 33.64679 -84.40608 977 ft 0 kts 271°
2026-05-07 18:48 33.64679 -84.40617 977 ft 6 kts 271°
2026-05-07 18:48 33.64680 -84.40949 981 ft 75 kts 270°
2026-05-07 18:48 33.64680 -84.41834 972 ft 137 kts 270°
2026-05-07 18:49 33.64681 -84.43173 1132 ft 175 kts 272°
2026-05-07 18:49 33.64678 -84.44619 1907 ft 176 kts 273°
2026-05-07 18:49 33.64738 -84.46067 2645 ft 178 kts 282°
2026-05-07 18:49 33.65181 -84.47481 3169 ft 187 kts 297°
2026-05-07 18:50 33.65777 -84.48897 3671 ft 198 kts 296°
2026-05-07 18:50 33.66415 -84.50421 4093 ft 213 kts 295°
2026-05-07 18:50 33.67062 -84.52072 4641 ft 224 kts 293°
2026-05-07 18:50 33.67715 -84.53816 5115 ft 238 kts 293°
2026-05-07 18:51 33.68428 -84.55637 5836 ft 242 kts 296°
2026-05-07 18:51 33.69429 -84.57246 6482 ft 252 kts 314°
2026-05-07 18:51 33.71012 -84.58245 7203 ft 267 kts 340°
2026-05-07 18:51 33.72878 -84.58362 7997 ft 275 kts 356°
2026-05-07 18:52 33.74817 -84.58212 8629 ft 281 kts 355°
2026-05-07 18:52 33.76761 -84.58131 9290 ft 283 kts 353°
2026-05-07 18:52 33.78734 -84.58109 10023 ft 283 kts 351°
2026-05-07 18:52 33.80719 -84.58043 10566 ft 295 kts 357°
2026-05-07 18:53 33.82771 -84.57410 11194 ft 314 kts 14°
2026-05-07 18:53 33.84745 -84.56166 11600 ft 334 kts 22°
2026-05-07 18:53 33.86797 -84.54679 11887 ft 351 kts 23°
2026-05-07 18:53 33.88925 -84.53143 12230 ft 365 kts 22°
2026-05-07 18:54 33.91169 -84.51566 12544 ft 380 kts 21°
2026-05-07 18:54 33.93515 -84.49958 12974 ft 389 kts 21°
2026-05-07 18:54 33.95875 -84.48360 13514 ft 395 kts 20°
2026-05-07 18:54 33.98302 -84.46725 14077 ft 401 kts 20°
2026-05-07 18:55 34.00735 -84.45094 14617 ft 407 kts 19°
2026-05-07 18:55 34.03234 -84.43417 15220 ft 412 kts 19°
2026-05-07 18:55 34.05771 -84.41715 15713 ft 420 kts 19°
2026-05-07 18:55 34.08325 -84.40001 16329 ft 423 kts 19°
2026-05-07 18:56 34.10929 -84.38257 16821 ft 430 kts 19°
2026-05-07 18:56 34.13560 -84.36498 17358 ft 435 kts 19°
2026-05-07 18:56 34.16219 -84.34724 17799 ft 443 kts 19°
2026-05-07 18:56 34.18928 -84.32912 18430 ft 444 kts 19°
2026-05-07 18:57 34.21649 -84.31088 18877 ft 450 kts 19°
2026-05-07 18:57 34.24421 -84.29235 19416 ft 453 kts 18°
2026-05-07 18:57 34.26242 -84.28046 19825 ft 452 kts 17°
2026-05-07 18:57 34.30038 -84.25995 20477 ft 444 kts
2026-05-07 18:58 34.32999 -84.24964 20961 ft 439 kts
2026-05-07 18:58 34.35988 -84.24186 21474 ft 437 kts 359°
2026-05-07 18:58 34.38962 -84.23528 21832 ft 442 kts 358°
2026-05-07 18:58 34.42005 -84.22890 22352 ft 443 kts 357°
2026-05-07 18:59 34.45083 -84.22242 22783 ft 447 kts 357°
2026-05-07 18:59 34.48146 -84.21583 23237 ft 450 kts 358°
2026-05-07 18:59 34.51302 -84.20884 23772 ft 452 kts 358°
2026-05-07 18:59 34.54514 -84.20160 24123 ft 458 kts 358°
2026-05-07 19:00 34.57792 -84.19415 24470 ft 464 kts 358°
2026-05-07 19:00 34.61077 -84.18655 25050 ft 463 kts 358°
2026-05-07 19:00 34.64336 -84.17891 25507 ft 466 kts 358°
2026-05-07 19:00 34.67586 -84.17128 25930 ft 469 kts 358°
2026-05-07 19:01 34.69722 -84.16625 26197 ft 471 kts 358°
2026-05-07 19:01 34.74040 -84.15604 26729 ft 474 kts 358°
2026-05-07 19:01 34.77325 -84.14825 27131 ft 478 kts 358°
2026-05-07 19:01 34.80656 -84.13977 27528 ft 482 kts 359°
2026-05-07 19:02 34.84050 -84.13054 27847 ft 487 kts 359°
2026-05-07 19:02 34.87360 -84.12121 28245 ft 490 kts 359°
2026-05-07 19:02 34.90693 -84.11170 28672 ft 491 kts 359°
2026-05-07 19:02 34.94020 -84.10214 29231 ft 488 kts 359°
2026-05-07 19:03 34.97310 -84.09267 29744 ft 486 kts 359°
2026-05-07 19:03 34.99509 -84.08637 30084 ft 485 kts 358°
2026-05-07 19:03 35.03899 -84.07388 30595 ft 486 kts 358°
2026-05-07 19:03 35.07164 -84.06469 31118 ft 482 kts 358°
2026-05-07 19:04 35.10462 -84.05535 31670 ft 478 kts 358°
2026-05-07 19:04 35.13691 -84.04622 32163 ft 475 kts 358°
2026-05-07 19:04 35.16872 -84.03728 32510 ft 475 kts 357°
2026-05-07 19:04 35.20123 -84.02821 32836 ft 476 kts 357°
2026-05-07 19:05 35.23338 -84.01929 33020 ft 480 kts 357°
2026-05-07 19:05 35.26611 -84.01022 33339 ft 480 kts 357°
2026-05-07 19:05 35.28777 -84.00414 33769 ft 476 kts 357°
2026-05-07 19:05 35.33020 -83.99212 34359 ft 473 kts 357°
2026-05-07 19:06 35.36244 -83.98302 34744 ft 472 kts 357°
2026-05-07 19:06 35.42651 -83.96506 34978 ft 476 kts 357°
2026-05-07 19:06 35.45866 -83.95606 34978 ft 473 kts 357°
2026-05-07 19:07 35.52321 -83.93775 34979 ft 468 kts 356°
2026-05-07 19:07 35.58725 -83.91966 34979 ft 469 kts 356°
2026-05-07 19:08 35.65129 -83.90162 34978 ft 472 kts 356°
2026-05-07 19:08 35.71521 -83.88354 34988 ft 473 kts 356°
2026-05-07 19:09 35.78022 -83.86330 34984 ft 483 kts
2026-05-07 19:09 35.84377 -83.83137 34988 ft 502 kts 11°
2026-05-07 19:10 35.90629 -83.78997 34989 ft 508 kts 15°
2026-05-07 19:10 35.96767 -83.74662 34996 ft 509 kts 15°
2026-05-07 19:11 36.02963 -83.70291 34989 ft 513 kts 15°
2026-05-07 19:11 36.09141 -83.65966 34981 ft 509 kts 15°
2026-05-07 19:12 36.15373 -83.61631 34985 ft 507 kts 14°
2026-05-07 19:12 36.21552 -83.57349 34991 ft 508 kts 14°
2026-05-07 19:13 36.26673 -83.53805 34992 ft 508 kts 14°
2026-05-07 19:13 36.33863 -83.48819 34992 ft 506 kts 14°
2026-05-07 19:14 36.40057 -83.44524 34983 ft 511 kts 14°
2026-05-07 19:14 36.46231 -83.40228 34981 ft 510 kts 14°
2026-05-07 19:15 36.52430 -83.35897 34976 ft 505 kts 14°
2026-05-07 19:15 36.58550 -83.31615 34973 ft 510 kts 15°
2026-05-07 19:16 36.63707 -83.28017 34967 ft 510 kts 15°
2026-05-07 19:16 36.70885 -83.22974 34966 ft 508 kts 14°
2026-05-07 19:17 36.75998 -83.19387 34969 ft 509 kts 15°
2026-05-07 19:17 36.83239 -83.14304 34961 ft 513 kts 15°
2026-05-07 19:18 36.89400 -83.09943 34962 ft 509 kts 15°
2026-05-07 19:18 36.94360 -83.05666 34961 ft 535 kts 28°
2026-05-07 19:19 36.97975 -83.01293 34957 ft 547 kts 37°
2026-05-07 19:19 36.99651 -82.98972 34956 ft 552 kts 38°
2026-05-07 19:19 37.05319 -82.90231 34955 ft 554 kts 43°
2026-05-07 19:20 37.09188 -82.83888 34955 ft 554 kts 44°
2026-05-07 19:20 37.14571 -82.74796 34958 ft 558 kts 45°
2026-05-07 19:21 37.18382 -82.68282 34956 ft 556 kts 44°
2026-05-07 19:21 37.23710 -82.59202 34958 ft 555 kts 44°
2026-05-07 19:22 37.28302 -82.51434 34957 ft 556 kts 44°
2026-05-07 19:22 37.32127 -82.44965 34960 ft 552 kts 44°
2026-05-07 19:23 37.36678 -82.37274 34963 ft 554 kts 44°
2026-05-07 19:23 37.41284 -82.29490 34962 ft 552 kts 45°
2026-05-07 19:24 37.45844 -82.21758 34960 ft 552 kts 45°
2026-05-07 19:24 37.51611 -82.13326 34959 ft 539 kts 32°
2026-05-07 19:25 37.56353 -82.08444 34960 ft 523 kts 24°
2026-05-07 19:25 37.63288 -82.02433 34954 ft 518 kts 21°
2026-05-07 19:26 37.69274 -81.97479 34950 ft 518 kts 21°
2026-05-07 19:26 37.75303 -81.92420 34948 ft 518 kts 22°
2026-05-07 19:27 37.81213 -81.87367 34941 ft 515 kts 22°
2026-05-07 19:27 37.87122 -81.82267 34944 ft 512 kts 22°
2026-05-07 19:28 37.92024 -81.78028 34938 ft 514 kts 22°
2026-05-07 19:28 37.98896 -81.72063 34937 ft 519 kts 22°
2026-05-07 19:29 38.03870 -81.67743 34938 ft 517 kts 22°
2026-05-07 19:29 38.10717 -81.61755 34940 ft 512 kts 22°
2026-05-07 19:30 38.15600 -81.57493 34943 ft 514 kts 22°
2026-05-07 19:30 38.21503 -81.52337 34944 ft 516 kts 22°
2026-05-07 19:31 38.27403 -81.47169 34940 ft 516 kts 23°
2026-05-07 19:31 38.34273 -81.41136 34939 ft 516 kts 23°
2026-05-07 19:32 38.39188 -81.36816 34938 ft 515 kts 22°
2026-05-07 19:32 38.45031 -81.31644 34935 ft 514 kts 23°
2026-05-07 19:33 38.50922 -81.26437 34930 ft 516 kts 23°
2026-05-07 19:33 38.57794 -81.20365 34922 ft 516 kts 24°
2026-05-07 19:34 38.62665 -81.16036 34922 ft 514 kts 24°
2026-05-07 19:34 38.68549 -81.10813 34916 ft 514 kts 24°
2026-05-07 19:35 38.74428 -81.05572 34916 ft 512 kts 23°
2026-05-07 19:35 38.80260 -81.00372 34915 ft 514 kts 23°
2026-05-07 19:36 38.86144 -80.95115 34914 ft 513 kts 24°
2026-05-07 19:36 38.91940 -80.89907 34918 ft 511 kts 23°
2026-05-07 19:37 38.97779 -80.84576 34918 ft 516 kts 26°
2026-05-07 19:37 39.03246 -80.78571 34920 ft 526 kts 34°
2026-05-07 19:38 39.05861 -80.75204 34775 ft 531 kts 37°
2026-05-07 19:38 39.08368 -80.71740 34902 ft 532 kts 39°
2026-05-07 19:38 39.14126 -80.63405 34916 ft 536 kts 40°
2026-05-07 19:39 39.18234 -80.57363 34920 ft 534 kts 40°
2026-05-07 19:39 39.23147 -80.50166 34916 ft 535 kts 40°
2026-05-07 19:40 39.28088 -80.42970 34922 ft 535 kts 40°
2026-05-07 19:40 39.33001 -80.35832 34932 ft 535 kts 40°
2026-05-07 19:41 39.37919 -80.28678 34919 ft 531 kts 40°
2026-05-07 19:41 39.43676 -80.20300 34929 ft 533 kts 40°
2026-05-07 19:42 39.47783 -80.14298 34912 ft 532 kts 40°
2026-05-07 19:42 39.52690 -80.07117 34916 ft 533 kts 40°
2026-05-07 19:43 39.57589 -79.99925 34914 ft 533 kts 41°
2026-05-07 19:43 39.62499 -79.92706 34919 ft 533 kts 41°
2026-05-07 19:44 39.67383 -79.85511 34915 ft 532 kts 41°
2026-05-07 19:44 39.72275 -79.78286 34913 ft 535 kts 41°
2026-05-07 19:45 39.77137 -79.71083 34905 ft 532 kts 40°
2026-05-07 19:45 39.82820 -79.62643 34902 ft 532 kts 40°
2026-05-07 19:46 39.86863 -79.56634 34896 ft 533 kts 40°
2026-05-07 19:46 39.91740 -79.49367 34879 ft 532 kts 41°
2026-05-07 19:47 39.96586 -79.42133 34874 ft 533 kts 41°
2026-05-07 19:47 40.01490 -79.34794 34876 ft 536 kts 41°
2026-05-07 19:48 40.06313 -79.27540 34884 ft 532 kts 42°
2026-05-07 19:48 40.11182 -79.20207 34880 ft 535 kts 42°
2026-05-07 19:49 40.16037 -79.12894 34877 ft 531 kts 41°
2026-05-07 19:49 40.20916 -79.05652 34873 ft 529 kts 41°
2026-05-07 19:50 40.25787 -78.98463 34876 ft 529 kts 40°
2026-05-07 19:50 40.30640 -78.91299 34881 ft 530 kts 41°
2026-05-07 19:51 40.35547 -78.84022 34884 ft 530 kts 41°
2026-05-07 19:51 40.41207 -78.75591 34881 ft 531 kts 41°
2026-05-07 19:52 40.45256 -78.69531 34878 ft 530 kts 41°
2026-05-07 19:52 40.50097 -78.62273 34868 ft 529 kts 41°
2026-05-07 19:53 40.54915 -78.55040 34868 ft 528 kts 41°
2026-05-07 19:53 40.59747 -78.47768 34869 ft 529 kts 42°
2026-05-07 19:54 40.64576 -78.40477 34871 ft 529 kts 42°
2026-05-07 19:54 40.69380 -78.33209 34860 ft 529 kts 43°
2026-05-07 19:55 40.74190 -78.25920 34864 ft 528 kts 43°
2026-05-07 19:55 40.79018 -78.18578 34865 ft 528 kts 43°
2026-05-07 19:56 40.83779 -78.11322 34869 ft 527 kts 43°
2026-05-07 19:56 40.88578 -78.03966 34861 ft 529 kts 44°
2026-05-07 19:57 40.93001 -77.96153 34867 ft 533 kts 51°
2026-05-07 19:57 40.96952 -77.87834 34863 ft 535 kts 56°
2026-05-07 19:58 41.00701 -77.79345 34861 ft 535 kts 56°
2026-05-07 19:58 41.04409 -77.70831 34846 ft 537 kts 56°
2026-05-07 19:59 41.08147 -77.62275 34836 ft 535 kts 56°
2026-05-07 19:59 41.11903 -77.53725 34837 ft 535 kts 56°
2026-05-07 20:00 41.15630 -77.45246 34833 ft 536 kts 56°
2026-05-07 20:00 41.19371 -77.36732 34846 ft 534 kts 56°
2026-05-07 20:01 41.23114 -77.28193 34853 ft 534 kts 57°
2026-05-07 20:01 41.26850 -77.19646 34857 ft 534 kts 57°
2026-05-07 20:02 41.30571 -77.11111 34853 ft 534 kts 57°
2026-05-07 20:02 41.34264 -77.02615 34858 ft 534 kts 57°
2026-05-07 20:03 41.37955 -76.94091 34863 ft 534 kts 57°
2026-05-07 20:03 41.41668 -76.85492 34859 ft 533 kts 57°
2026-05-07 20:04 41.45331 -76.76986 34859 ft 534 kts 57°
2026-05-07 20:04 41.49008 -76.68425 34852 ft 535 kts 57°
2026-05-07 20:05 41.52698 -76.59817 34855 ft 534 kts 57°
2026-05-07 20:05 41.56359 -76.51249 34853 ft 534 kts 57°
2026-05-07 20:06 41.60027 -76.42632 34850 ft 535 kts 57°
2026-05-07 20:06 41.63689 -76.34000 34850 ft 534 kts 58°
2026-05-07 20:07 41.67272 -76.25537 34855 ft 535 kts 58°
2026-05-07 20:07 41.70934 -76.16866 34862 ft 534 kts 58°
2026-05-07 20:08 41.74582 -76.08197 34869 ft 535 kts 58°
2026-05-07 20:08 41.78214 -75.99536 34871 ft 534 kts 58°
2026-05-07 20:09 41.81829 -75.90897 34872 ft 534 kts 58°
2026-05-07 20:10 41.87255 -75.77875 34875 ft 535 kts 58°
2026-05-07 20:10 41.90884 -75.69138 34872 ft 534 kts 58°
2026-05-07 20:11 41.94508 -75.60377 34868 ft 535 kts 59°
2026-05-07 20:11 41.98721 -75.50168 34864 ft 535 kts 58°
2026-05-07 20:12 42.01700 -75.42933 34857 ft 536 kts 59°
2026-05-07 20:12 42.05313 -75.34125 34859 ft 533 kts 59°
2026-05-07 20:13 42.08992 -75.25419 34856 ft 534 kts 57°
2026-05-07 20:13 42.12940 -75.16896 34853 ft 534 kts 55°
2026-05-07 20:14 42.16915 -75.08500 34853 ft 532 kts 55°
2026-05-07 20:14 42.20865 -75.00069 34852 ft 532 kts 55°
2026-05-07 20:15 42.24790 -74.91574 34848 ft 534 kts 56°
2026-05-07 20:15 42.28668 -74.83095 34846 ft 534 kts 56°
2026-05-07 20:16 42.32568 -74.74530 34843 ft 534 kts 56°
2026-05-07 20:16 42.36465 -74.65947 34838 ft 533 kts 56°
2026-05-07 20:17 42.40326 -74.57423 34832 ft 534 kts 56°
2026-05-07 20:17 42.44193 -74.48861 34835 ft 533 kts 56°
2026-05-07 20:18 42.48049 -74.40303 34835 ft 534 kts 56°
2026-05-07 20:18 42.51878 -74.31791 34835 ft 533 kts 57°
2026-05-07 20:19 42.55756 -74.23144 34833 ft 534 kts 57°
2026-05-07 20:19 42.59589 -74.14558 34847 ft 534 kts 57°
2026-05-07 20:20 42.63434 -74.05909 34857 ft 535 kts 57°
2026-05-07 20:20 42.67263 -73.97276 34859 ft 534 kts 57°
2026-05-07 20:21 42.71071 -73.88680 34856 ft 536 kts 57°
2026-05-07 20:21 42.74937 -73.80029 34857 ft 534 kts 55°
2026-05-07 20:22 42.79168 -73.71695 34856 ft 534 kts 51°
2026-05-07 20:22 42.83605 -73.63614 34854 ft 533 kts 50°
2026-05-07 20:23 42.88037 -73.55578 34846 ft 530 kts 50°
2026-05-07 20:23 42.92440 -73.47494 34842 ft 533 kts 50°
2026-05-07 20:24 42.96702 -73.39239 34838 ft 533 kts 55°
2026-05-07 20:24 43.00153 -73.30315 34833 ft 534 kts 68°
2026-05-07 20:25 43.02661 -73.20858 34524 ft 529 kts 74°
2026-05-07 20:25 43.03737 -73.16067 34252 ft 521 kts 76°
2026-05-07 20:25 43.04749 -73.11393 33885 ft 516 kts 76°
2026-05-07 20:25 43.05747 -73.06723 33443 ft 515 kts 76°
2026-05-07 20:26 43.06752 -73.02016 32956 ft 514 kts 76°
2026-05-07 20:26 43.07751 -72.97357 32428 ft 514 kts 75°
2026-05-07 20:26 43.08754 -72.92699 31911 ft 514 kts 75°
2026-05-07 20:26 43.09753 -72.88078 31404 ft 512 kts 75°
2026-05-07 20:27 43.10782 -72.83345 30884 ft 511 kts 75°
2026-05-07 20:27 43.11794 -72.78708 30374 ft 509 kts 75°
2026-05-07 20:27 43.12794 -72.74125 29861 ft 507 kts 75°
2026-05-07 20:27 43.13796 -72.69533 29340 ft 505 kts 75°
2026-05-07 20:28 43.14804 -72.64905 28823 ft 502 kts 74°
2026-05-07 20:28 43.15784 -72.60399 28326 ft 499 kts 74°
2026-05-07 20:28 43.16765 -72.55878 27809 ft 497 kts 75°
2026-05-07 20:28 43.17741 -72.51369 27307 ft 494 kts 75°
2026-05-07 20:29 43.18714 -72.46869 26814 ft 491 kts 75°
2026-05-07 20:29 43.19677 -72.42395 26295 ft 489 kts 75°
2026-05-07 20:29 43.20637 -72.37924 25786 ft 487 kts 74°
2026-05-07 20:29 43.21580 -72.33523 25277 ft 484 kts 75°
2026-05-07 20:30 43.22523 -72.29117 24761 ft 476 kts 75°
2026-05-07 20:30 43.23446 -72.24796 24273 ft 467 kts 74°
2026-05-07 20:30 43.24342 -72.20599 23778 ft 459 kts 74°
2026-05-07 20:30 43.25231 -72.16423 23283 ft 452 kts 75°
2026-05-07 20:31 43.26107 -72.12302 22808 ft 444 kts 75°
2026-05-07 20:31 43.26956 -72.08300 22338 ft 437 kts 75°
2026-05-07 20:31 43.27805 -72.04338 21731 ft 433 kts 75°
2026-05-07 20:31 43.28656 -72.00393 21377 ft 423 kts 74°
2026-05-07 20:32 43.29474 -71.96540 20957 ft 420 kts 75°
2026-05-07 20:32 43.30271 -71.92737 20516 ft 419 kts 75°
2026-05-07 20:32 43.31072 -71.88893 20038 ft 418 kts 75°
2026-05-07 20:32 43.31861 -71.85096 19596 ft 417 kts 75°
2026-05-07 20:33 43.32657 -71.81261 19136 ft 415 kts 75°
2026-05-07 20:33 43.33445 -71.77460 18674 ft 410 kts 75°
2026-05-07 20:33 43.34208 -71.73769 18234 ft 403 kts 75°
2026-05-07 20:33 43.34972 -71.70078 17761 ft 396 kts 75°
2026-05-07 20:34 43.35713 -71.66494 17376 ft 387 kts 74°
2026-05-07 20:34 43.36446 -71.62948 17028 ft 383 kts 75°
2026-05-07 20:34 43.37171 -71.59443 16614 ft 382 kts 75°
2026-05-07 20:34 43.37888 -71.55973 16183 ft 381 kts 74°
2026-05-07 20:35 43.38608 -71.52483 15769 ft 380 kts 74°
2026-05-07 20:35 43.39326 -71.48992 15343 ft 380 kts 73°
2026-05-07 20:35 43.40035 -71.45530 14915 ft 379 kts 73°
2026-05-07 20:35 43.40744 -71.42072 14486 ft 374 kts 73°
2026-05-07 20:36 43.41443 -71.38652 14066 ft 368 kts 73°
2026-05-07 20:36 43.42120 -71.35332 13656 ft 362 kts 73°
2026-05-07 20:36 43.42792 -71.32031 13263 ft 356 kts 74°
2026-05-07 20:36 43.43459 -71.28760 12850 ft 351 kts 73°
2026-05-07 20:37 43.44105 -71.25582 12458 ft 347 kts 73°
2026-05-07 20:37 43.44755 -71.22383 12047 ft 347 kts 73°
2026-05-07 20:37 43.45396 -71.19220 11645 ft 346 kts 73°
2026-05-07 20:37 43.46046 -71.16018 11235 ft 346 kts 73°
2026-05-07 20:38 43.46706 -71.12873 11016 ft 337 kts 71°
2026-05-07 20:38 43.47451 -71.09900 11024 ft 327 kts 68°
2026-05-07 20:38 43.48271 -71.06975 11023 ft 328 kts 66°
2026-05-07 20:38 43.49110 -71.04031 11028 ft 330 kts 66°
2026-05-07 20:39 43.49928 -71.01105 11025 ft 330 kts 67°
2026-05-07 20:39 43.50729 -70.98171 11032 ft 327 kts 67°
2026-05-07 20:39 43.51529 -70.95203 11030 ft 330 kts 68°
2026-05-07 20:39 43.52312 -70.92275 11027 ft 330 kts 68°
2026-05-07 20:40 43.53108 -70.89296 11024 ft 327 kts 68°
2026-05-07 20:40 43.53785 -70.86324 11025 ft 332 kts 76°
2026-05-07 20:40 43.54017 -70.83152 11021 ft 330 kts 91°
2026-05-07 20:40 43.53873 -70.80022 11016 ft 329 kts 97°
2026-05-07 20:41 43.53615 -70.76877 11005 ft 329 kts 97°
2026-05-07 20:41 43.53365 -70.73749 11018 ft 330 kts 97°
2026-05-07 20:41 43.53146 -70.70617 11006 ft 331 kts 96°
2026-05-07 20:41 43.52952 -70.67464 11015 ft 332 kts 96°
2026-05-07 20:42 43.52771 -70.64284 11012 ft 332 kts 95°
2026-05-07 20:42 43.52596 -70.61130 11022 ft 331 kts 95°
2026-05-07 20:42 43.52421 -70.57954 11008 ft 331 kts 95°
2026-05-07 20:42 43.52248 -70.54822 11030 ft 330 kts 95°
2026-05-07 20:43 43.52072 -70.51685 11013 ft 330 kts 95°
2026-05-07 20:43 43.51893 -70.48547 10861 ft 327 kts 95°
2026-05-07 20:43 43.51712 -70.45412 10543 ft 326 kts 95°
2026-05-07 20:43 43.51535 -70.42332 10112 ft 327 kts 94°
2026-05-07 20:44 43.51358 -70.39255 9926 ft 318 kts 94°
2026-05-07 20:44 43.51185 -70.36240 9598 ft 315 kts 94°
2026-05-07 20:44 43.51010 -70.33247 9214 ft 309 kts 95°
2026-05-07 20:44 43.50836 -70.30267 8853 ft 302 kts 95°
2026-05-07 20:45 43.50668 -70.27391 8501 ft 296 kts 95°
2026-05-07 20:45 43.50503 -70.24629 8166 ft 289 kts 95°
2026-05-07 20:45 43.50342 -70.21888 7834 ft 284 kts 94°
2026-05-07 20:45 43.50182 -70.19178 7524 ft 280 kts 94°
2026-05-07 20:46 43.50021 -70.16502 7189 ft 279 kts 94°
2026-05-07 20:46 43.49862 -70.13833 6903 ft 278 kts 94°
2026-05-07 20:46 43.49704 -70.11201 6559 ft 278 kts 94°
2026-05-07 20:46 43.49542 -70.08546 6264 ft 276 kts 94°
2026-05-07 20:47 43.49432 -70.05899 5905 ft 276 kts 87°
2026-05-07 20:47 43.49755 -70.03361 5609 ft 264 kts 62°
2026-05-07 20:47 43.50824 -70.01453 5324 ft 249 kts 33°
2026-05-07 20:47 43.52294 -70.00281 5028 ft 241 kts 22°
2026-05-07 20:48 43.53756 -69.99191 4759 ft 236 kts 25°
2026-05-07 20:48 43.55151 -69.98078 4497 ft 231 kts 24°
2026-05-07 20:48 43.56624 -69.97335 4227 ft 219 kts
2026-05-07 20:48 43.58068 -69.97643 4055 ft 207 kts 333°
2026-05-07 20:49 43.59286 -69.98624 3966 ft 202 kts 321°
2026-05-07 20:49 43.60281 -69.99946 3729 ft 199 kts 305°
2026-05-07 20:49 43.61029 -70.01573 3451 ft 199 kts 300°
2026-05-07 20:49 43.61743 -70.03189 3188 ft 200 kts 301°
2026-05-07 20:50 43.62435 -70.04862 2999 ft 197 kts 293°
2026-05-07 20:50 43.62767 -70.06624 2998 ft 184 kts 279°
2026-05-07 20:50 43.62888 -70.08305 2955 ft 168 kts 277°
2026-05-07 20:50 43.63007 -70.09869 2598 ft 165 kts 278°
2026-05-07 20:51 43.63128 -70.11469 2185 ft 170 kts 278°
2026-05-07 20:51 43.63239 -70.13087 1883 ft 168 kts 278°
2026-05-07 20:51 43.63348 -70.14669 1701 ft 165 kts 278°
2026-05-07 20:51 43.63464 -70.16262 1712 ft 167 kts 278°
2026-05-07 20:52 43.63573 -70.17860 1711 ft 166 kts 278°
2026-05-07 20:52 43.63676 -70.19433 1556 ft 162 kts 278°
2026-05-07 20:52 43.63783 -70.20924 1349 ft 148 kts 278°
2026-05-07 20:52 43.63877 -70.22271 1148 ft 134 kts 278°
2026-05-07 20:53 43.63962 -70.23528 954 ft 128 kts 277°
2026-05-07 20:53 43.64052 -70.24752 797 ft 130 kts 277°
2026-05-07 20:53 43.64137 -70.25993 614 ft 129 kts 277°
2026-05-07 20:53 43.64220 -70.27226 445 ft 130 kts 276°
2026-05-07 20:54 43.64303 -70.28468 280 ft 131 kts 276°
2026-05-07 20:54 43.64391 -70.29736 103 ft 132 kts 276°
2026-05-07 20:54 43.64472 -70.30918 59 ft 104 kts 275°
2026-05-07 20:54 43.64518 -70.31578 68 ft 46 kts 276°
2026-05-07 20:55 43.64547 -70.31976 68 ft 30 kts 276°
2026-05-07 20:55 43.64606 -70.32090 67 ft 12 kts
2026-05-07 20:55 43.64631 -70.32086 67 ft 0 kts
2026-05-07 20:56 43.64636 -70.32085 67 ft 3 kts 14°
2026-05-07 20:56 43.64657 -70.32024 68 ft 10 kts 92°
2026-05-07 20:56 43.64651 -70.31911 69 ft 11 kts 95°
2026-05-07 20:56 43.64645 -70.31816 70 ft 10 kts 96°
2026-05-07 20:57 43.64636 -70.31702 70 ft 14 kts 96°
2026-05-07 20:57 43.64626 -70.31566 70 ft 14 kts 95°
2026-05-07 20:57 43.64618 -70.31438 70 ft 13 kts 94°
2026-05-07 20:57 43.64610 -70.31311 67 ft 6 kts 95°
2026-05-07 20:58 43.64606 -70.31245 66 ft 8 kts 97°
2026-05-07 20:58 43.64601 -70.31152 64 ft 9 kts 65°
2026-05-07 20:58 43.64654 -70.31123 63 ft 6 kts
2026-05-07 20:58 43.64679 -70.31119 64 ft 0 kts
2026-05-07 20:59 43.64680 -70.31119 64 ft 0 kts
2026-05-07 20:59 43.64681 -70.31119 64 ft 0 kts